This is the latest recevied weather packets stored in our database for station/object OE6ACM-14. If no packets are shown the sender has not sent any weather packets the latest 10 day(s).
| Time | Temp. | Humidity | Pressure | Rain* | Wind** | Luminosity | Snow |
|---|---|---|---|---|---|---|---|
| 1777906744 | 27.78° C | 22% | 923.1 hPa | - | - | - | - |
| 1777906444 | 28.33° C | 21% | 923.1 hPa | - | - | - | - |
| 1777906144 | 27.78° C | 22% | 923.2 hPa | - | - | - | - |
| 1777905844 | 28.89° C | 22% | 923.1 hPa | - | - | - | - |
| 1777905544 | 28.89° C | 23% | 923.2 hPa | - | - | - | - |
| 1777905244 | 28.33° C | 24% | 923.2 hPa | - | - | - | - |
| 1777904944 | 28.89° C | 23% | 923.2 hPa | - | - | - | - |
| 1777904644 | 28.33° C | 23% | 923.2 hPa | - | - | - | - |
| 1777904344 | 28.33° C | 24% | 923.2 hPa | - | - | - | - |
| 1777904044 | 28.33° C | 21% | 923.3 hPa | - | - | - | - |
| 1777903744 | 29.44° C | 22% | 923.2 hPa | - | - | - | - |
| 1777903444 | 28.89° C | 22% | 923.3 hPa | - | - | - | - |
| 1777903144 | 28.89° C | 22% | 923.4 hPa | - | - | - | - |
| 1777902844 | 29.44° C | 22% | 923.4 hPa | - | - | - | - |
| 1777902544 | 29.44° C | 22% | 923.4 hPa | - | - | - | - |
| 1777902244 | 28.33° C | 23% | 923.4 hPa | - | - | - | - |
| 1777901944 | 28.33° C | 21% | 923.6 hPa | - | - | - | - |
| 1777901644 | 28.89° C | 21% | 923.6 hPa | - | - | - | - |
| 1777901344 | 28.33° C | 23% | 923.6 hPa | - | - | - | - |
| 1777901044 | 28.33° C | 21% | 923.8 hPa | - | - | - | - |
| 1777900744 | 29.44° C | 21% | 923.8 hPa | - | - | - | - |
| 1777900444 | 29.44° C | 22% | 923.8 hPa | - | - | - | - |
| 1777900144 | 29.44° C | 21% | 923.9 hPa | - | - | - | - |
| 1777899844 | 29.44° C | 21% | 923.9 hPa | - | - | - | - |
| 1777899544 | 28.89° C | 24% | 924 hPa | - | - | - | - |
* Rain since midnight (hover to see other rain measurements)
** Current wind speed in m/s (hover to see current wind gust speed)